Location: Chmeln�
(49.6483°N, 14.9871°E)
Time: 23:21:30
(UTC+00:00)

SJ-6B - Pass Details

Date: 18 September 2020
Orbit: 511 x 580 km, 97.6° (Epoch: 31 October)

Event Time Altitude Azimuth Distance (km) Brightness Sun altitude
Exits shadow 17:46:45 - 124° (ESE) 1,922 5.0 -7.4°
Reaches altitude 10° 17:47:17 10° 119° (ESE) 1,734 4.8 -7.4°
Maximum altitude 17:50:18 24° 65° (ENE) 1,107 3.9 -7.9°
Drops below altitude 10° 17:53:21 10° 11° (N) 1,757 5.4 -8.4°
Sets 17:55:45 0° 357° (N) 2,658 6.5 -8.8°
